Regional Weather Roundup
Issued by NWS

Home | Current Version | Previous Version | Text Only | Print | Product List | Glossary Off
Versions: 1 2 3 4 5 6 7 8 9 10 11 12 13 14 15 16 17 18 19 20 21 22 23 24 25 26 27 28 29 30 31 32 33 34 35 36 37 38 39 40 41 42 43 44 45 46 47 48 49 50

000
ASUS45 KTFX 232310
RWRMT
MONTANA REGIONAL WEATHER ROUNDUP
NATIONAL WEATHER SERVICE GREAT FALLS MT
500 PM MDT SUN APR 23 2017

NOTE: "FAIR" INDICATES FEW OR NO CLOUDS BELOW 12000 FEET WITH NO
SIGNIFICANT WEATHER AND/OR OBSTRUCTIONS TO VISIBILITY.

MTZ001>007-043-240000-
WEST OF THE DIVIDE

CITY           SKY/WX    TMP DP  RH WIND       PRES   REMARKS
KALISPELL      CLOUDY    52  41  66 SE13      29.73F
MISSOULA       PTSUNNY   56  38  50 VRB6      29.75F
BUTTE          CLOUDY    47  33  58 NW5       29.75F
MULLAN PASS    PTSUNNY   37  31  78 VRB7      29.78F WCI  32
ANACONDA         N/A     50  36  57 N12       29.74F
DEER LODGE       N/A     48  36  61 NW10G18   29.77F
EUREKA           N/A     52  34  50 E3        29.75F
HAMILTON         N/A     55  36  47 NW13G18   29.76F
LIBBY            N/A     55  30  38 CALM      29.72F
PLAINS           N/A     55  36  49 W12       29.79F
$$

MTZ008-052>055-240000-
SOUTHWEST MONTANA

CITY           SKY/WX    TMP DP  RH WIND       PRES   REMARKS
BOZEMAN        LGT RAIN  47  42  83 CALM      29.75R
DILLON         CLOUDY    46  36  68 S17       29.74F
W YELLOWSTONE  CLOUDY    39  32  75 S18G37    29.79R WCI  30
ENNIS          CLOUDY    41  37  87 E5        29.82S
THREE FORKS      N/A     53 -54   1 SW6       29.75F
TWIN BRIDGES     N/A     48  37  65 E9        29.78F
$$

MTZ009-010-012-014-046-048-049-054-240000-
EAST SLOPES AND CENTRAL MONTANA

CITY           SKY/WX    TMP DP  RH WIND       PRES   REMARKS
CUT BANK       CLOUDY    52  39  61 NE6       29.67S
GREAT FALLS    CLOUDY    51  42  71 CALM      29.70F
MALMSTROM AFB  CLOUDY    49  42  76 W7        29.71S
HELENA         PTSUNNY   54  37  52 W12       29.71F
AUGUSTA          N/A     54  31  42 W8        29.67F
BOWMANS CRNR   PTSUNNY   49  41  74 SE7       29.68F
CHOTEAU          N/A     54  37  54 E5        29.69F
FAIRFIELD        N/A     51  38  60 CALM      29.67F
POWER            N/A     51  40  67 W3        29.68F
RAYNESFORD     LGT RAIN  48  42  81 NW6       29.70S
ULM            PTSUNNY   49  43  80 CALM      29.70F
$$

MTZ011-013-016-021-045-047-050-051-240000-
NORTH CENTRAL MONTANA

CITY           SKY/WX    TMP DP  RH WIND       PRES   REMARKS
HAVRE          LGT RAIN  46  42  86 NE13      29.71F FOG
LEWISTOWN      CLOUDY    51  40  65 N10       29.67F
N BAR RANCH    CLOUDY    48  41  76 N7        29.71F
CHINOOK          N/A     45  37  76 E12       29.72F
DENTON         PTSUNNY   50  44  79 N12G18    29.66F
FORT BENTON      N/A     52  43  71 MISG      29.70F
GEYSER         PTSUNNY   49  43  80 N12       29.69S
GRASS RANGE    PTSUNNY   48  45  91 E9        29.66S
JUDITH GAP     SHOWER    43  39  86 W17G30    29.71R
STANFORD       RAIN      46  43  91 NE5       29.70S
WINIFRED       LGT RAIN  48  44  84 NE8       29.68F
$$

MTZ017>020-022>027-061-062-240000-
NORTHEAST MONTANA

CITY           SKY/WX    TMP DP  RH WIND       PRES   REMARKS
GLASGOW        CLOUDY    43  31  62 E20       29.76F
JORDAN           N/A     56  40  55 E14G22    29.66F
SIDNEY         CLOUDY    34  30  85 E17       29.84F WCI  23
WOLF POINT     CLOUDY    39  30  70 E21       29.80F WCI  29
MALTA          CLOUDY    45  36  70 E13       29.74F
PLENTYWOOD       N/A     34  28  80 E21G28    29.87F WCI  22
POPLAR           N/A     36  28  75 E17G24    29.83F WCI  25
SCOBEY           N/A     32  24  72 E18       29.82F WCI  20
$$

MTZ028>42-056>058-240000-
SOUTHCENTRAL AND SOUTHEAST MONTANA

CITY           SKY/WX    TMP DP  RH WIND       PRES   REMARKS
BAKER          CLOUDY    44  34  67 SE22      29.75F
BILLINGS       CLOUDY    65  34  31 W5        29.60F
LIVINGSTON     LGT RAIN  48  41  76 SW12      29.71R
MILES CITY     CLOUDY    57  39  51 NE20      29.65F
BIG TIMBER     MOSUNNY   54  37  54 W25G36    29.69R
EKALAKA          N/A     51  39  63 E13       29.72F
LAUREL           N/A     65  35  32 CALM      29.63R
ROUNDUP          N/A     55  42  61 N18       29.58R
$$

REGIONAL REPORTS...DAKOTAS

CITY           SKY/WX    TMP DP  RH WIND       PRES   REMARKS
WILLISTON      CLOUDY    34  28  79 E18G25    29.90F WCI  23
MINOT          CLOUDY    31  26  82 E20G28    29.97F WCI  19
DICKINSON      CLOUDY    38  32  79 E14       29.79F WCI  30
BEACH          CLOUDY    39  34  81 SE20      29.82F WCI  30
TIOGA          CLOUDY    30  30 100 E25       29.92S WCI  16
WATFORD CITY   CLOUDY    32  32 100 E17G24    29.87F WCI  21
BISMARCK       CLOUDY    40  33  76 E21       29.88S
GRAND FORKS    PTSUNNY   33  29  85 E17       30.07F WCI  22
FARGO          CLOUDY    42  33  70 NE25G31   29.95F
BUFFALO SD       N/A     53  39  59 E16       29.67F
RAPID CITY     SUNNY     71  41  33 N10       29.65F
$$

REGIONAL REPORTS...WYOMING/IDAHO/WASHINGTON

CITY           SKY/WX    TMP DP  RH WIND       PRES   REMARKS
GILLETTE       CLOUDY    68  39  34 W6        29.62F
SHERIDAN       CLOUDY    68  39  34 E6        29.59F
BUFFALO WY     CLOUDY    67  36  31 NW7       29.63F
CODY           CLOUDY    62  30  29 SW16G24   29.66F
YELLOWSTONE LA   N/A     39  27  62 VRB7G16   29.85S
IDAHO FALLS    CLOUDY    59  35  40 S24G32    29.76F
SALMON         CLOUDY    46  39  76 S7        29.78R
BOISE          MOSUNNY   63  35  35 SW7       29.77F
SPOKANE        CLOUDY    56  37  49 SW15G22   29.78F
$$

REGIONAL REPORTS...ALBERTA

CITY           SKY/WX    TMP DP  RH WIND       PRES   REMARKS
EDMONTON       CLOUDY    34  30  86 E8        29.80F WCI  27
CALGARY        PTSUNNY   50  37  62 E15       29.68S
LETHBRIDGE     PTSUNNY   59  36  41 VRB6      29.62F
MEDICINE HAT   PTSUNNY   54  41  62 S9        29.67F
WATERTON GATE    N/A     50  28  43 SW13G23     N/A
MILK RIVER       N/A     52  39  62 SE6         N/A
$$

REGIONAL REPORTS...SASKATCHEWAN

CITY           SKY/WX    TMP DP  RH WIND       PRES   REMARKS
SWIFT CURRENT  CLOUDY    34  30  86 SE16G24   29.77F WCI  23
REGINA         PTSUNNY   39  14  35 SE25G31   29.91F WCI  28
SASKATOON      LGT RAIN  36  34  93 SE14      29.93F WCI  27
CYPRESS HILLS    N/A     36  34  93 S8          N/A  WCI  29
VAL MARIE        N/A     37  34  87 SE10        N/A  WCI  30
ROCKGLEN         N/A     28  28 100 SE18G25     N/A  WCI  16
ASSINIBOIA       N/A     36  34  93 E14G22      N/A  WCI  27
$$



USA.gov is the U.S. government's official web portal to all federal, state and local government web resources and services.